Weather History for KMYF - October, 2013

Change the Weather History Date:

Monday, October 7, 2013

  Actual Average Record
Temperature  
Mean Temperature 70 °F -  
Max Temperature 82 °F 74 °F 95 °F (2008)
Min Temperature 59 °F 57 °F 51 °F (2011)
Cooling Degree Days 6    
Growing Degree Days 20 (Base 50)    
Moisture  
Dew Point 42 °F    
Average Humidity 43    
Maximum Humidity 90    
Minimum Humidity 9    
Precipitation  
Precipitation 0.00 in - - ()
Sea Level Pressure  
Sea Level Pressure 29.94 in    
Wind  
Wind Speed 3 mph (West)    
Max Wind Speed 12 mph    
Max Gust Speed -    
Visibility 10 miles    
Events      
Averages and records for this station are not official NWS values.
T = Trace of Precipitation, MM = Missing Value Source: NWS Daily Summary

Daily Weather History Graph

Daily Weather History Graph

Search for Another Location

Airport or City:

Trip Planner

Search our weather history database for the weather conditions in past years. The results will help you decide how hot, cold, wet, or windy it might be!

Date:

Astronomy

Oct. 07, 2013 Rise Set
Actual Time 6:47 AM PDT 6:24 PM PDT
Civil Twilight 6:22 AM PDT 6:49 PM PDT
Nautical Twilight 5:53 AM PDT 7:18 PM PDT
Astronomical Twilight 5:25 AM PDT 7:46 PM PDT
Moon 9:31 AM PDT (10/7) 8:24 PM PDT (10/7)
Length of Visible Light 12h 27m
Length of Day
11h 37m
Waxing Crescent, 9% of the Moon is Illuminated
Oct 7
Waxing Crescent
Oct 11
First Quarter
Oct 18
Full
Oct 26
Last Quarter
Nov 3
New

Hourly Weather History & Observations

Time (PDT) Temp. Dew Point Humidity Pressure Visibility Wind Dir Wind Speed Gust Speed Precip Events Conditions
12:53 AM 64.0 °F 46.0 °F 52% 29.96 in 10.0 mi ESE 3.5 mph - N/A   Clear
1:53 AM 64.0 °F 37.9 °F 38% 29.94 in 10.0 mi Calm Calm - N/A   Clear
2:53 AM 61.0 °F 36.0 °F 39% 29.94 in 10.0 mi Calm Calm - N/A   Clear
3:53 AM 59.0 °F 35.1 °F 41% 29.93 in 10.0 mi Calm Calm - N/A   Clear
4:53 AM 61.0 °F 35.1 °F 38% 29.93 in 10.0 mi Calm Calm - N/A   Clear
5:53 AM 60.1 °F 26.1 °F 27% 29.94 in 10.0 mi NE 3.5 mph - N/A   Clear
6:53 AM 61.0 °F 26.1 °F 26% 29.95 in 10.0 mi Calm Calm - N/A   Clear
7:53 AM 61.0 °F 28.0 °F 29% 29.98 in 10.0 mi Calm Calm - N/A   Clear
8:53 AM 70.0 °F 27.0 °F 20% 29.98 in 10.0 mi Calm Calm - N/A   Clear
9:53 AM 77.0 °F 23.0 °F 13% 29.97 in 10.0 mi ESE 4.6 mph - N/A   Clear
10:53 AM 82.0 °F 18.0 °F 9% 29.96 in 10.0 mi SSE 4.6 mph - N/A   Clear
11:53 AM 75.0 °F 46.0 °F 36% 29.95 in 10.0 mi West 8.1 mph - N/A   Clear
12:53 PM 79.0 °F 48.0 °F 34% 29.95 in 10.0 mi WSW 9.2 mph - N/A   Clear
1:53 PM 80.1 °F 42.1 °F 26% 29.93 in 10.0 mi NW 11.5 mph - N/A   Clear
2:53 PM 79.0 °F 48.0 °F 34% 29.92 in 10.0 mi West 9.2 mph - N/A   Clear
3:53 PM 78.1 °F 51.1 °F 39% 29.91 in 10.0 mi West 8.1 mph - N/A   Clear
4:53 PM 75.9 °F 43.0 °F 31% 29.92 in 10.0 mi West 6.9 mph - N/A   Clear
5:53 PM 73.9 °F 39.0 °F 28% 29.92 in 10.0 mi WNW 5.8 mph - N/A   Clear
6:53 PM 69.1 °F 52.0 °F 54% 29.93 in 10.0 mi Calm Calm - N/A   Clear
7:53 PM 66.9 °F 57.0 °F 70% 29.93 in 10.0 mi Calm Calm - N/A   Clear
8:53 PM 64.9 °F 59.0 °F 81% 29.94 in 10.0 mi West 3.5 mph - N/A   Clear
9:53 PM 64.0 °F 59.0 °F 84% 29.95 in 10.0 mi Calm Calm - N/A   Clear
10:53 PM 62.1 °F 57.0 °F 84% 29.95 in 10.0 mi Calm Calm - N/A   Clear
11:53 PM 60.1 °F 57.0 °F 90% 29.94 in 9.0 mi Calm Calm - N/A   Clear